Location: Jackson Park
(37.2862°N, 79.9123°W)
Time: 20:46:54
(UTC+00:00)

Vanguard 2 Rocket - Pass Details

Date: 11 May 2026
Orbit: 553 x 3286 km, 32.9° (Epoch: 6 June)

Event Time Altitude Azimuth Distance (km) Brightness Sun altitude
Rises 21:57:47 0° 281° (W) 7,082 12.8 26.2°
Reaches altitude 10° 22:02:28 10° 278° (W) 6,181 13.1 25.2°
Maximum altitude 22:21:54 58° 206° (SSW) 3,382 10.3 21.4°
Drops below altitude 10° 22:36:52 10° 132° (SE) 4,888 10.2 18.5°
Sets 22:40:06 0° 128° (SE) 5,583 10.4 17.8°
